STARLINK-1112, 44925

Orbit data source: Space-Track

STARLINK-1112, 44925 is a payload satellite owned by SpaceX/Seattle (US) in LEO that was launched on Tue, 07 Jan 2020 UTC via an FALCON 9 launch vehicle from the Air Force Eastern Test Range (AFETR). Payload-class satellites include a variety of spacecraft equipped with specific instruments for various scientific and technological missions. These include communications satellites like Starlink; space stations such as the ISS; scientific satellites like the Hubble; Earth observation satellites from companies like Planet Labs, Umbra, and HawkEye 360; GPS; miniature CubeSats for education and research; and military/defense satellites.

Loading next visibility...
Identifier
44925, 2020-001M
Orbit
LEO
Country
Flag of USUS
Related business
Manufacturer
SpaceX/Seattle
Mission
Partially operational Commercial Communications
Bus & Motor
STARLINK, Unknown motor
Mass
260 kg wet, ~248 kg dry
Launch date (UTC)
2020-01-07 (6 years ago)
Launch vehicle
FALCON 9
Launch site
Air Force Eastern Test Range (AFETR)
Object type
Payload
Rocket body
Debris
Shape & HBR
Box + 1 Pan, 10.1 m
Radar Cross Section
13.562 m², Large (>1 m²)

Expand to show TLE details & history
Last TLE update: 4 hours ago

TLE from 4 hours ago
0 STARLINK-1112
1 44925U 20001M   25288.66670139  .00187006  00000-0  30669-2 0  9998
2 44925  53.0497 240.7017 0002752 102.5165  83.7310 15.51295622  5905
Epoch: 2025-10-15T16:00Z
TLE epoch observation values (Epoch: 2025-10-15T16:00:03.000Z)
Latitude
-5.12556°
Longitude
160.09878°
Altitude
414.442 km
Speed
7.663 km/s
True Right ascension
04h 18m 11s
True Declination
-5° 05' 37"
Sunlit
Object was in full shadow at epoch
Visualization orbit readout
Latitude
Unknown
Longitude
Unknown
Altitude
Unknown
Speed
Unknown
Apparent Right ascension
Unknown
Apparent Declination
Unknown
Sunlit
N/A
Visualization observer readout
Local Sidereal Time
14:29:04
Azimuth
Unknown
Elevation
Unknown
Doppler factor
Unknown
Orbital elements
Apogee altitude
415.088 km
Perigee altitude
411.35 km
Semi-major axis
6,791.356 km
Eccentricity
0.00028
Inclination
53.0497°
RAAN
240.7017°
Arg. of periapsis
102.5165°
True anomaly
83.76235°
Mean anomaly
83.731°
Eccentric anomaly
83.74667°
Mean motion
3.87801 °/min
Orbital period
92.83 mins
BSTAR
0.0030669
Loading maneuver chart data...
Computing Atmospheric mass density...

Documentation

Showing up to 5 results
|